カタログに戻る

STARLINK-37476

運用中通信SSO
NORAD 68853·PAYLOAD·🇺🇸 United States

打ち上げ Apr 26, 2026 から Vandenberg Space Force Base

Loading…

次のパス (今後24時間)

TLE

最新Source: CelesTrak SupGP

元期: Sep 14, 2026, 23:30 UTC

1 68853C 26094Q   26257.97965278  .00043974  00000+0  13650-2 0  2576
2 68853  97.2834 271.1953 0001654  88.5441 220.8737 15.33417582    18

AllMySatでSTARLINK-37476をリアルタイム追跡

Download on the App Store